This is the latest recevied weather packets stored in our database for station/object EA7HQL-10. If no packets are shown the sender has not sent any weather packets the latest 1 day(s).
| Time | Temp. | Humidity | Pressure | Rain* | Wind** | Luminosity | Snow |
|---|---|---|---|---|---|---|---|
| 1778005839 | 23.33° C | 34% | 1009.3 hPa | 0 mm | 0.45 m/s, 112° | - | - |
| 1778005554 | 23.33° C | 33% | 1009.4 hPa | 0 mm | 1.34 m/s, 71° | - | - |
| 1778005259 | 23.33° C | 33% | 1009.3 hPa | 0 mm | 1.79 m/s, 275° | - | - |
| 1778004969 | 23.33° C | 33% | 1009.2 hPa | 0 mm | 0 m/s | - | - |
| 1778004699 | 23.89° C | 33% | 1009.3 hPa | 0 mm | 0.89 m/s, 103° | - | - |
| 1778004409 | 23.33° C | 34% | 1009.2 hPa | 0 mm | 0 m/s | - | - |
| 1778004124 | 23.33° C | 33% | 1009.1 hPa | 0 mm | 0.89 m/s, 68° | - | - |
| 1778003844 | 23.89° C | 33% | 1009 hPa | 0 mm | 1.79 m/s, 355° | - | - |
| 1778003549 | 23.89° C | 32% | 1009 hPa | 0 mm | 0.89 m/s, 321° | - | - |
| 1778003264 | 23.89° C | 32% | 1009 hPa | 0 mm | 2.24 m/s, 11° | - | - |
| 1778002979 | 23.89° C | 31% | 1009.1 hPa | 0 mm | 2.68 m/s, 306° | - | - |
| 1778002684 | 23.89° C | 34% | 1008.8 hPa | 0 mm | 0.89 m/s, 61° | - | - |
| 1778002399 | 23.89° C | 35% | 1008.9 hPa | 0 mm | 0.89 m/s, 42° | - | - |
| 1778002120 | 23.89° C | 34% | 1008.9 hPa | 0 mm | 0.89 m/s, 24° | - | - |
| 1778001879 | 23.89° C | 35% | 1009 hPa | 0 mm | 0.89 m/s, 55° | - | - |
| 1778001619 | 24.44° C | 35% | 1009.1 hPa | 0 mm | 0.89 m/s, 150° | - | - |
| 1778001334 | 23.89° C | 35% | 1009 hPa | 0 mm | 0.45 m/s, 246° | - | - |
| 1778001034 | 23.89° C | 35% | 1009 hPa | 0 mm | 2.24 m/s, 354° | - | - |
| 1778000769 | 24.44° C | 34% | 1008.9 hPa | 0 mm | 0.89 m/s, 265° | - | - |
| 1778000509 | 24.44° C | 34% | 1009.1 hPa | 0 mm | 1.79 m/s, 293° | - | - |
| 1778000234 | 24.44° C | 34% | 1009.2 hPa | 0 mm | 0 m/s | - | - |
| 1777999939 | 24.44° C | 34% | 1009.2 hPa | 0 mm | 1.34 m/s, 249° | - | - |
| 1777999674 | 24.44° C | 34% | 1009.1 hPa | 0 mm | 0.89 m/s, 139° | - | - |
| 1777999409 | 24.44° C | 39% | 1009.1 hPa | 0 mm | 0.89 m/s, 167° | - | - |
| 1777999169 | 23.33° C | 39% | 1009.2 hPa | 0 mm | 0 m/s | - | - |
* Rain latest hour (hover to see other rain measurements)
** Current wind speed in m/s (hover to see current wind gust speed)